Regional Weather Roundup
Issued by NWS

Home | Current Version | Previous Version | Text Only | Print | Product List | Glossary On
Versions: 1 2 3 4 5 6 7 8 9 10 11 12 13 14 15 16 17 18 19 20 21 22 23 24 25 26 27
000
ASUS45 KSLC 252210
RWRUT

UTAH REGIONAL WEATHER ROUNDUP
NATIONAL WEATHER SERVICE SALT LAKE CITY UT
400 PM MDT TUE JUL 25 2017

UTZ001>011-023>025-252300-

NORTHERN UTAH

CITY           SKY/WX    TMP DP  RH WIND       PRES   REMARKS
BRIGHAM CITY   PTSUNNY   82  51  34 NW5       30.09F
DUGWAY         PTSUNNY   83  51  32 SW3       30.08
HILL AFB       PTSUNNY   81  54  39 S6        30.12S
LOGAN          CLOUDY    80  55  42 NW6       30.11F
OGDEN          PTSUNNY   83  54  36 W8        30.08F
SALT LAKE CITY CLOUDY    83  56  39 VRB5      30.08F
TOOELE VALLEY  CLOUDY    81  55  41 N10       30.09S
WENDOVER       MOSUNNY   86  54  33 E9        30.06F
HEBER CITY     DRIZZLE   68  59  73 N5        30.18S
WEST JORDAN    CLOUDY    78  64  62 S6        30.13S

$$

UTZ011>015-024>027-252300-

CENTRAL/NORTHEAST UTAH

CITY           SKY/WX    TMP DP  RH WIND       PRES   REMARKS
PROVO AIRPORT  CLOUDY    78  60  53 W3        30.13F
MOAB/CANYONLAN PTSUNNY   76  67  73 VRB3      30.12S
DELTA          CLOUDY    79  54  41 SW9       30.13F
PRICE          LGT RAIN  66  65  96 W7        30.21S
RICHFIELD      MOSUNNY   72  59  64 CALM      30.21F
ROOSEVELT      CLOUDY    75  59  57 SE8       30.18S
VERNAL         PTSUNNY   74  61  63 VRB5      30.17F

$$

UTZ013>016-019>022-027-252300-

SOUTHERN UTAH

CITY           SKY/WX    TMP DP  RH WIND       PRES   REMARKS
BRYCE CANYON   CLOUDY    64  54  69 NW7       30.33F
CEDAR CITY     CLOUDY    72  61  68 S8        30.21F
MILFORD        CLOUDY    79  60  52 S14       30.15F
ST GEORGE      CLOUDY    75  67  76 SE5       30.10F
HANKSVILLE     CLOUDY    75  63  64 CALM      30.14S
KANAB          MOSUNNY   73  63  68 SW8       30.23S
BLANDING       PTSUNNY   82  57  42 S3        30.25F

$$

REGIONAL REPORTS     COLORADO/ARIZONA

CITY           SKY/WX    TMP DP  RH WIND       PRES   REMARKS
CRAIG, CO      CLOUDY    72  56  57 NW3       30.24S
GRAND JUNCTION LGT RAIN  71  67  87 NW7       30.15S
RIFLE, CO      CLOUDY    79  57  46 W10       30.16F
MONTROSE, CO   MOSUNNY   80  59  48 S13       30.18F
CORTEZ, CO     CLOUDY    81  57  43 NW8       30.19F
COLORADO CITY  DRIZZLE   70  64  83 NW3       30.23F
PAGE, AZ       LGT RAIN  74  66  76 N3        30.12S
GRAND CANYON   LGT RAIN  62  61  96 SW7       30.33F
KINGMAN, AZ    LGT RAIN  69  67  93 E13       30.17F
FLAGSTAFF, AZ  CLOUDY    65  59  81 W9        30.35S

$$

REGIONAL REPORTS    NEVADA/IDAHO/WYOMING

CITY           SKY/WX    TMP DP  RH WIND       PRES   REMARKS
LAS VEGAS, NV  CLOUDY    82  63  52 E12       30.06S
ELY, NY        PTSUNNY   83  47  28 W9        30.18S
ELKO, NV       SUNNY     88  42  20 S3        30.07F
POCATELLO, ID  CLOUDY    80  53  39 E3        30.11F
BURLEY, ID     PTSUNNY   83  50  31 CALM      30.05S
FORT BRIDGER,  DRIZZLE   72  51  47 SW10      30.30R
EVANSTON, WY   CLOUDY    68  55  63 N9        30.28S
ROCK SPRINGS,  CLOUDY    71  51  49 E7        30.24F
KEMMERER, WY     N/A     72  46  40 W13G18    30.28S

$$




USA.gov is the U.S. government's official web portal to all federal, state and local government web resources and services.